User: anonymous   Login
Location: Campo Alegre
(10.4289°N, 66.6519°W)
Time: 00:17:45
(UTC+00:00)
Language:

CZ-4B R/B - Orbit

View from above orbital plane
View from above orbital plane
View from above satellite
View from above satellite

Ground track
Ground track

The orbit data is extracted from the following two-line orbital elements,

1 32959U 08026B   24204.12204434  .00000513  00000-0  16507-3 0  9997
2 32959  98.9486 234.1522 0069588 176.6243 252.3150 14.42444294849858
Epoch (UTC): 22 July 2024 02:55:44
Eccentricity: 0.0069588
inclination: 98.9486°
perigee height: 701 km
apogee height: 800 km
right ascension of ascending node: 234.1522°
argument of perigee: 176.6243°
revolutions per day: 14.42444294
mean anomaly at epoch: 252.3150°
orbit number at epoch: 84985

The dashed part of the orbit path shows where the satellite is in the earth's shadow,  

DLR